Time,TemperatureF,DewpointF,PressureIn,WindDirection,WindDirectionDegrees,WindSpeedMPH,WindSpeedGustMPH,Humidity,HourlyPrecipIn,Conditions,Clouds,dailyrainin,SoftwareType,DateUTC
2013-02-02 00:03:00,8.0,2.0,30.01,South,181,6.0,6.0,75,0.00,,,0.00,,2013-02-02 05:03:00,
2013-02-02 00:12:00,8.0,2.0,30.01,South,181,6.0,6.0,75,0.00,,,0.00,,2013-02-02 05:12:00,
2013-02-02 00:22:00,8.0,2.0,30.01,South,181,6.0,6.0,75,0.00,,,0.00,,2013-02-02 05:22:00,
2013-02-02 00:33:00,8.0,2.0,30.04,South,181,6.0,6.0,75,0.00,,,0.00,,2013-02-02 05:33:00,
2013-02-02 00:41:00,8.0,2.0,30.04,South,181,6.0,6.0,75,0.00,,,0.00,,2013-02-02 05:41:00,
2013-02-02 00:52:00,8.0,2.0,30.04,South,181,6.0,6.0,75,0.00,,,0.00,,2013-02-02 05:52:00,
2013-02-02 01:02:00,8.0,2.0,30.04,South,181,6.0,6.0,75,0.00,,,0.00,,2013-02-02 06:02:00,
2013-02-02 01:12:00,8.0,2.0,30.04,South,181,6.0,6.0,75,0.00,,,0.00,,2013-02-02 06:12:00,
2013-02-02 01:22:00,8.0,2.0,30.04,South,181,6.0,6.0,75,0.00,,,0.00,,2013-02-02 06:22:00,
2013-02-02 01:32:00,8.0,2.0,30.04,South,181,6.0,6.0,75,0.00,,,0.00,,2013-02-02 06:32:00,
2013-02-02 01:42:00,8.0,2.0,30.04,South,181,6.0,6.0,75,0.00,,,0.00,,2013-02-02 06:42:00,
2013-02-02 01:52:00,8.0,2.0,30.04,South,181,6.0,6.0,75,0.00,,,0.00,,2013-02-02 06:52:00,
2013-02-02 02:02:00,8.0,2.0,30.04,South,181,6.0,6.0,75,0.00,,,0.00,,2013-02-02 07:02:00,
2013-02-02 02:12:00,8.0,2.0,30.07,South,181,6.0,6.0,75,0.00,,,0.00,,2013-02-02 07:12:00,
2013-02-02 02:21:00,8.0,2.0,30.07,South,181,6.0,6.0,75,0.00,,,0.00,,2013-02-02 07:21:00,
2013-02-02 02:32:00,8.0,2.0,30.07,South,181,6.0,6.0,75,0.00,,,0.00,,2013-02-02 07:32:00,
2013-02-02 02:42:00,8.0,2.0,30.07,South,181,6.0,6.0,75,0.00,,,0.00,,2013-02-02 07:42:00,
2013-02-02 02:52:00,8.0,2.0,30.07,South,181,6.0,6.0,75,0.00,,,0.00,,2013-02-02 07:52:00,
2013-02-02 03:00:00,8.0,2.0,30.07,South,181,6.0,6.0,75,0.00,,,0.00,,2013-02-02 08:00:00,
2013-02-02 03:01:00,8.0,2.0,30.07,South,181,6.0,6.0,75,0.00,,,0.00,,2013-02-02 08:01:00,
2013-02-02 03:11:00,8.0,2.0,30.07,South,181,6.0,6.0,75,0.00,,,0.00,,2013-02-02 08:11:00,
2013-02-02 03:21:00,8.0,2.0,30.07,South,181,6.0,6.0,75,0.00,,,0.00,,2013-02-02 08:21:00,
2013-02-02 03:31:00,8.0,2.0,30.07,South,181,6.0,6.0,75,0.00,,,0.00,,2013-02-02 08:31:00,
2013-02-02 03:41:00,8.0,2.0,30.07,South,181,6.0,6.0,75,0.00,,,0.00,,2013-02-02 08:41:00,
2013-02-02 03:53:00,8.0,2.0,30.07,South,181,6.0,6.0,75,0.00,,,0.00,,2013-02-02 08:53:00,
2013-02-02 04:52:00,7.0,1.0,30.07,SSW,203,4.0,6.0,75,0.00,,,0.00,,2013-02-02 09:52:00,
2013-02-02 05:02:00,7.0,1.0,30.07,SSW,203,4.0,6.0,75,0.00,,,0.00,,2013-02-02 10:02:00,
2013-02-02 05:11:00,7.0,1.0,30.07,SSW,203,4.0,6.0,75,0.00,,,0.00,,2013-02-02 10:11:00,
2013-02-02 05:21:00,7.0,1.0,30.07,SSW,203,4.0,6.0,75,0.00,,,0.00,,2013-02-02 10:21:00,
2013-02-02 05:32:00,8.0,2.0,30.04,SW,225,4.0,4.0,75,0.00,,,0.00,,2013-02-02 10:32:00,
2013-02-02 05:42:00,8.0,2.0,30.04,SW,225,4.0,4.0,75,0.00,,,0.00,,2013-02-02 10:42:00,
2013-02-02 05:52:00,8.0,2.0,30.07,SW,225,4.0,4.0,75,0.00,,,0.00,,2013-02-02 10:52:00,
2013-02-02 06:02:00,8.0,2.0,30.07,SW,225,4.0,4.0,75,0.00,,,0.00,,2013-02-02 11:02:00,
2013-02-02 06:11:00,8.0,2.0,30.07,SW,225,4.0,4.0,75,0.00,,,0.00,,2013-02-02 11:11:00,
2013-02-02 06:22:00,7.0,1.0,30.07,SSW,203,0.0,2.0,75,0.00,,,0.00,,2013-02-02 11:22:00,
2013-02-02 06:32:00,7.0,1.0,30.07,SSW,203,0.0,2.0,75,0.00,,,0.00,,2013-02-02 11:32:00,
2013-02-02 06:42:00,7.0,1.0,30.07,SSW,203,0.0,2.0,75,0.00,,,0.00,,2013-02-02 11:42:00,
2013-02-02 06:52:00,7.0,1.0,30.07,SSW,203,0.0,2.0,75,0.00,,,0.00,,2013-02-02 11:52:00,
2013-02-02 07:02:00,7.0,1.0,30.07,SSW,203,0.0,2.0,75,0.00,,,0.00,,2013-02-02 12:02:00,
2013-02-02 07:11:00,7.0,1.0,30.07,SSW,203,0.0,2.0,75,0.00,,,0.00,,2013-02-02 12:11:00,
2013-02-02 07:22:00,7.0,1.0,30.07,SSW,196,4.0,8.0,75,0.00,,,0.00,,2013-02-02 12:22:00,
2013-02-02 07:32:00,7.0,1.0,30.07,SSW,196,4.0,8.0,75,0.00,,,0.00,,2013-02-02 12:32:00,
2013-02-02 07:42:00,7.0,1.0,30.07,SSW,196,4.0,8.0,75,0.00,,,0.00,,2013-02-02 12:42:00,
2013-02-02 07:52:00,6.0,0.0,30.07,WSW,248,6.0,9.0,75,0.00,,,0.00,,2013-02-02 12:52:00,
2013-02-02 08:03:00,6.0,0.0,30.07,WSW,248,6.0,9.0,75,0.00,,,0.00,,2013-02-02 13:03:00,
2013-02-02 08:11:00,6.0,0.0,30.07,WSW,248,6.0,9.0,75,0.00,,,0.00,,2013-02-02 13:11:00,
2013-02-02 08:22:00,6.0,0.0,30.07,WSW,248,6.0,9.0,75,0.00,,,0.00,,2013-02-02 13:22:00,
2013-02-02 08:32:00,9.0,3.0,30.07,WSW,248,6.0,9.0,75,0.00,,,0.00,,2013-02-02 13:32:00,
2013-02-02 08:42:00,9.0,3.0,30.07,WSW,248,6.0,9.0,75,0.00,,,0.00,,2013-02-02 13:42:00,
2013-02-02 08:52:00,9.0,3.0,30.07,WSW,248,6.0,9.0,75,0.00,,,0.00,,2013-02-02 13:52:00,
2013-02-02 09:02:00,8.0,2.0,30.07,WSW,248,6.0,9.0,75,0.00,,,0.00,,2013-02-02 14:02:00,
2013-02-02 09:11:00,8.0,2.0,30.07,WSW,248,6.0,9.0,75,0.00,,,0.00,,2013-02-02 14:11:00,
2013-02-02 09:22:00,10.0,4.0,30.07,South,181,5.0,5.0,75,0.00,,,0.00,,2013-02-02 14:22:00,
2013-02-02 09:32:00,14.0,4.0,30.10,South,181,5.0,5.0,65,0.00,,,0.00,,2013-02-02 14:32:00,
2013-02-02 09:42:00,14.0,4.0,30.10,South,181,5.0,5.0,65,0.00,,,0.00,,2013-02-02 14:42:00,
2013-02-02 09:52:00,14.0,3.0,30.07,South,181,5.0,5.0,60,0.00,,,0.00,,2013-02-02 14:52:00,
2013-02-02 10:03:00,18.0,5.0,30.07,West,270,5.0,5.0,57,0.00,,,0.00,,2013-02-02 15:03:00,
2013-02-02 10:22:00,19.0,6.0,30.07,West,270,5.0,5.0,56,0.00,,,0.00,,2013-02-02 15:22:00,
2013-02-02 10:32:00,17.0,4.0,30.07,West,270,5.0,5.0,55,0.00,,,0.00,,2013-02-02 15:32:00,
2013-02-02 10:42:00,17.0,4.0,30.07,West,270,5.0,5.0,55,0.00,,,0.00,,2013-02-02 15:42:00,
2013-02-02 10:52:00,19.0,5.0,30.04,West,270,5.0,5.0,54,0.00,,,0.00,,2013-02-02 15:52:00,
2013-02-02 11:03:00,17.0,3.0,30.01,West,270,5.0,5.0,54,0.00,,,0.00,,2013-02-02 16:03:00,
2013-02-02 11:12:00,17.0,3.0,30.01,West,270,5.0,5.0,54,0.00,,,0.00,,2013-02-02 16:12:00,
2013-02-02 11:22:00,19.0,4.0,30.01,South,184,9.0,10.0,52,0.00,,,0.00,,2013-02-02 16:22:00,
2013-02-02 11:32:00,19.0,4.0,30.01,South,184,9.0,10.0,52,0.00,,,0.00,,2013-02-02 16:32:00,
2013-02-02 11:42:00,19.0,4.0,30.01,South,184,9.0,10.0,52,0.00,,,0.00,,2013-02-02 16:42:00,
2013-02-02 11:52:00,21.0,4.0,30.01,SSW,203,4.0,8.0,48,0.00,,,0.00,,2013-02-02 16:52:00,
2013-02-02 12:03:00,20.0,3.0,30.01,South,177,9.0,12.0,46,0.00,,,0.00,,2013-02-02 17:03:00,
2013-02-02 12:11:00,20.0,3.0,30.01,South,177,9.0,12.0,46,0.00,,,0.00,,2013-02-02 17:11:00,
2013-02-02 12:22:00,21.0,3.0,29.97,SSE,151,9.0,9.0,45,0.00,,,0.00,,2013-02-02 17:22:00,
2013-02-02 12:32:00,20.0,3.0,29.97,South,189,11.0,11.0,47,0.00,,,0.00,,2013-02-02 17:32:00,
2013-02-02 12:42:00,20.0,3.0,29.97,South,189,11.0,11.0,47,0.00,,,0.00,,2013-02-02 17:42:00,
2013-02-02 12:53:00,20.0,3.0,29.94,SSW,203,9.0,10.0,47,0.00,,,0.00,,2013-02-02 17:53:00,
2013-02-02 13:02:00,21.0,4.0,29.94,South,170,10.0,15.0,47,0.00,,,0.00,,2013-02-02 18:02:00,
2013-02-02 13:12:00,21.0,4.0,29.94,South,170,10.0,15.0,47,0.00,,,0.00,,2013-02-02 18:12:00,
2013-02-02 13:22:00,21.0,4.0,29.94,South,170,10.0,15.0,47,0.00,,,0.00,,2013-02-02 18:22:00,
2013-02-02 13:32:00,20.0,4.0,29.94,South,178,7.0,10.0,48,0.00,,,0.00,,2013-02-02 18:32:00,
2013-02-02 13:42:00,20.0,4.0,29.94,South,178,7.0,10.0,48,0.00,,,0.00,,2013-02-02 18:42:00,
2013-02-02 13:52:00,18.0,2.0,29.94,South,188,8.0,15.0,49,0.00,,,0.00,,2013-02-02 18:52:00,
2013-02-02 14:02:00,17.0,2.0,29.94,SSW,203,8.0,8.0,50,0.00,,,0.00,,2013-02-02 19:02:00,
2013-02-02 14:12:00,17.0,2.0,29.94,SSW,203,8.0,8.0,50,0.00,,,0.00,,2013-02-02 19:12:00,
2013-02-02 14:21:00,17.0,2.0,29.94,SSW,196,11.0,11.0,50,0.00,,,0.00,,2013-02-02 19:21:00,
2013-02-02 14:32:00,16.0,2.0,29.94,SSW,203,9.0,11.0,53,0.00,,,0.00,,2013-02-02 19:32:00,
2013-02-02 14:42:00,16.0,2.0,29.94,SSW,203,9.0,11.0,53,0.00,,,0.00,,2013-02-02 19:42:00,
2013-02-02 14:52:00,16.0,2.0,29.94,SSW,203,9.0,11.0,53,0.00,,,0.00,,2013-02-02 19:52:00,
2013-02-02 15:01:00,16.0,2.0,29.94,SSW,203,9.0,11.0,54,0.00,,,0.00,,2013-02-02 20:01:00,
2013-02-02 15:11:00,16.0,2.0,29.94,SSW,203,9.0,11.0,54,0.00,,,0.00,,2013-02-02 20:11:00,
2013-02-02 15:22:00,17.0,3.0,29.94,SSW,203,9.0,11.0,54,0.00,,,0.00,,2013-02-02 20:22:00,
2013-02-02 15:32:00,17.0,4.0,29.91,SSW,203,9.0,11.0,55,0.00,,,0.00,,2013-02-02 20:32:00,
2013-02-02 15:42:00,17.0,4.0,29.91,SSW,203,9.0,11.0,55,0.00,,,0.00,,2013-02-02 20:42:00,
2013-02-02 15:52:00,16.0,3.0,29.91,SSW,203,9.0,11.0,56,0.00,,,0.00,,2013-02-02 20:52:00,
2013-02-02 16:02:00,16.0,3.0,29.91,SSW,203,9.0,11.0,56,0.00,,,0.00,,2013-02-02 21:02:00,
2013-02-02 16:11:00,16.0,3.0,29.91,SSW,203,9.0,11.0,56,0.00,,,0.00,,2013-02-02 21:11:00,
2013-02-02 16:21:00,16.0,3.0,29.91,SSW,203,9.0,11.0,57,0.00,,,0.00,,2013-02-02 21:21:00,
2013-02-02 16:32:00,15.0,3.0,29.88,SSW,203,9.0,11.0,58,0.00,,,0.00,,2013-02-02 21:32:00,
2013-02-02 16:42:00,15.0,3.0,29.88,SSW,203,9.0,11.0,58,0.00,,,0.00,,2013-02-02 21:42:00,
2013-02-02 16:52:00,14.0,2.0,29.88,SSW,203,9.0,11.0,59,0.00,,,0.00,,2013-02-02 21:52:00,
2013-02-02 17:02:00,13.0,2.0,29.88,SSW,203,9.0,11.0,61,0.00,,,0.00,,2013-02-02 22:02:00,
2013-02-02 17:12:00,13.0,2.0,29.88,SSW,203,9.0,11.0,61,0.00,,,0.00,,2013-02-02 22:12:00,
2013-02-02 17:21:00,12.0,3.0,29.91,South,181,7.0,8.0,65,0.00,,,0.00,,2013-02-02 22:21:00,
2013-02-02 17:32:00,12.0,3.0,29.91,South,181,7.0,8.0,66,0.00,,,0.00,,2013-02-02 22:32:00,
2013-02-02 17:42:00,12.0,3.0,29.91,South,181,7.0,8.0,66,0.00,,,0.00,,2013-02-02 22:42:00,
2013-02-02 17:52:00,11.0,2.0,29.91,South,181,7.0,8.0,67,0.00,,,0.00,,2013-02-02 22:52:00,
2013-02-02 18:02:00,10.0,1.0,29.91,South,181,7.0,8.0,67,0.00,,,0.00,,2013-02-02 23:02:00,
2013-02-02 18:11:00,10.0,1.0,29.91,South,181,7.0,8.0,67,0.00,,,0.00,,2013-02-02 23:11:00,
2013-02-02 18:22:00,10.0,1.0,29.91,South,183,4.0,5.0,67,0.00,,,0.00,,2013-02-02 23:22:00,
2013-02-02 18:32:00,10.0,1.0,29.94,SSW,198,3.0,5.0,67,0.00,,,0.00,,2013-02-02 23:32:00,
2013-02-02 18:42:00,10.0,1.0,29.94,SSW,198,3.0,5.0,67,0.00,,,0.00,,2013-02-02 23:42:00,
2013-02-02 18:52:00,10.0,1.0,29.94,SSW,198,3.0,5.0,67,0.00,,,0.00,,2013-02-02 23:52:00,
2013-02-02 19:02:00,10.0,1.0,29.94,SSW,198,3.0,5.0,67,0.00,,,0.00,,2013-02-03 00:02:00,
2013-02-02 19:11:00,10.0,1.0,29.94,SSW,198,3.0,5.0,67,0.00,,,0.00,,2013-02-03 00:11:00,
2013-02-02 20:02:00,9.0,0.0,29.94,SSW,198,3.0,5.0,67,0.00,,,0.00,,2013-02-03 01:02:00,
2013-02-02 20:11:00,9.0,0.0,29.94,SSW,198,3.0,5.0,67,0.00,,,0.00,,2013-02-03 01:11:00,
2013-02-02 20:21:00,9.0,0.0,29.94,SSW,198,3.0,5.0,67,0.00,,,0.00,,2013-02-03 01:21:00,
2013-02-02 20:32:00,9.0,0.0,29.94,SSW,198,3.0,5.0,67,0.00,,,0.00,,2013-02-03 01:32:00,
2013-02-02 20:42:00,9.0,0.0,29.94,SSW,198,3.0,5.0,67,0.00,,,0.00,,2013-02-03 01:42:00,
2013-02-02 20:52:00,9.0,0.0,29.94,SSW,198,3.0,5.0,67,0.00,,,0.00,,2013-02-03 01:52:00,
2013-02-02 21:01:00,9.0,0.0,29.94,SSW,198,3.0,5.0,67,0.00,,,0.00,,2013-02-03 02:01:00,
2013-02-02 21:11:00,9.0,0.0,29.94,SSW,198,3.0,5.0,67,0.00,,,0.00,,2013-02-03 02:11:00,
2013-02-02 21:21:00,9.0,0.0,29.94,SSW,198,3.0,5.0,67,0.00,,,0.00,,2013-02-03 02:21:00,
2013-02-02 21:32:00,9.0,0.0,29.94,SSW,198,3.0,5.0,67,0.00,,,0.00,,2013-02-03 02:32:00,
2013-02-02 21:42:00,9.0,0.0,29.94,SSW,198,3.0,5.0,67,0.00,,,0.00,,2013-02-03 02:42:00,
2013-02-02 21:52:00,9.0,0.0,29.94,SSW,198,3.0,5.0,67,0.00,,,0.00,,2013-02-03 02:52:00,
2013-02-02 22:02:00,8.0,-1.0,29.94,SSW,198,3.0,5.0,67,0.00,,,0.00,,2013-02-03 03:02:00,
2013-02-02 22:11:00,8.0,-1.0,29.91,SSW,198,3.0,5.0,67,0.00,,,0.00,,2013-02-03 03:11:00,
2013-02-02 22:22:00,8.0,-1.0,29.91,SSW,198,3.0,5.0,67,0.00,,,0.00,,2013-02-03 03:22:00,
2013-02-02 22:32:00,8.0,-1.0,29.91,SSW,198,3.0,5.0,67,0.00,,,0.00,,2013-02-03 03:32:00,
2013-02-02 22:52:00,8.0,-1.0,29.91,SSW,198,3.0,5.0,67,0.00,,,0.00,,2013-02-03 03:52:00,
2013-02-02 23:01:00,9.0,0.0,29.94,SSW,198,3.0,5.0,67,0.00,,,0.00,,2013-02-03 04:01:00,
2013-02-02 23:11:00,9.0,0.0,29.94,SSW,198,3.0,5.0,67,0.00,,,0.00,,2013-02-03 04:11:00,
2013-02-02 23:21:00,9.0,0.0,29.94,SSW,198,3.0,5.0,67,0.00,,,0.00,,2013-02-03 04:21:00,
2013-02-02 23:32:00,9.0,0.0,29.94,SSW,198,3.0,5.0,67,0.00,,,0.00,,2013-02-03 04:32:00,